DRK150 VQPR-VTBS

Flight info

Callsign DRK150
Flight time 2h 44m
Altitude 36000
Route PRO R598 SDP/N0463F370 W3 NILIT/N0436F250 W3 TEGAK/N0460F370 W3 DAC G463 BGO L507 IGONI WILLA1D
Aircraft A319/M-SDE3FGHIRWY/LB1

Departure

Time 2026-05-08 22:35
Airport Paro International Airport (VQPR)

Arrival

Time 2026-05-09 01:19
Airport Suvarnabhumi Airport (VTBS)
Time Latitude Longitude Altitude Speed Heading
2026-05-08 22:23 27.40634 89.42107 7210 ft 0 kts 238°
2026-05-08 22:27 27.40636 89.42111 7210 ft 3 kts 239°
2026-05-08 22:27 27.40647 89.42138 7348 ft 4 kts 262°
2026-05-08 22:28 27.40643 89.42163 7347 ft 3 kts 327°
2026-05-08 22:28 27.40640 89.42166 7347 ft 0 kts 331°
2026-05-08 22:31 27.40641 89.42166 7347 ft 0 kts 331°
2026-05-08 22:31 27.40648 89.42161 7348 ft 2 kts 331°
2026-05-08 22:31 27.40666 89.42166 7348 ft 3 kts 38°
2026-05-08 22:31 27.40686 89.42202 7349 ft 7 kts 46°
2026-05-08 22:32 27.40736 89.42209 7351 ft 7 kts 343°
2026-05-08 22:32 27.40782 89.42183 7352 ft 8 kts 331°
2026-05-08 22:32 27.40834 89.42151 7353 ft 9 kts 331°
2026-05-08 22:32 27.40893 89.42114 7354 ft 10 kts 331°
2026-05-08 22:33 27.40956 89.42075 7357 ft 10 kts 331°
2026-05-08 22:33 27.41018 89.42035 7359 ft 10 kts 330°
2026-05-08 22:33 27.41085 89.41992 7359 ft 12 kts 330°
2026-05-08 22:33 27.41153 89.41934 7361 ft 12 kts 303°
2026-05-08 22:34 27.41191 89.41895 7362 ft 5 kts
2026-05-08 22:34 27.41196 89.41920 7362 ft 4 kts 118°
2026-05-08 22:34 27.41184 89.41929 7362 ft 0 kts 151°
2026-05-08 22:35 27.41134 89.41961 7360 ft 36 kts 150°
2026-05-08 22:35 27.40685 89.42246 7349 ft 109 kts 150°
2026-05-08 22:35 27.39839 89.42783 7326 ft 166 kts 150°
2026-05-08 22:35 27.38839 89.43449 8005 ft 165 kts 145°
2026-05-08 22:36 27.38118 89.44456 8621 ft 171 kts 118°
2026-05-08 22:36 27.37402 89.45579 9007 ft 184 kts 137°
2026-05-08 22:36 27.36269 89.46329 9349 ft 198 kts 159°
2026-05-08 22:36 27.34921 89.46900 9720 ft 215 kts 159°
2026-05-08 22:37 27.33540 89.47689 10070 ft 233 kts 140°
2026-05-08 22:37 27.32635 89.49223 10406 ft 250 kts 104°
2026-05-08 22:37 27.32430 89.51166 11136 ft 250 kts 95°
2026-05-08 22:37 27.31887 89.53035 11919 ft 253 kts 124°
2026-05-08 22:38 27.30579 89.54345 12567 ft 258 kts 155°
2026-05-08 22:38 27.28826 89.54710 13151 ft 268 kts 184°
2026-05-08 22:38 27.26898 89.54419 13597 ft 286 kts 189°
2026-05-08 22:38 27.24871 89.54082 13871 ft 310 kts 188°
2026-05-08 22:39 27.22650 89.53719 14091 ft 333 kts 189°
2026-05-08 22:39 27.20276 89.53343 14244 ft 356 kts 189°
2026-05-08 22:39 27.17764 89.52956 14634 ft 368 kts 188°
2026-05-08 22:39 27.15201 89.52573 15251 ft 374 kts 189°
2026-05-08 22:40 27.12605 89.52199 15875 ft 377 kts 188°
2026-05-08 22:40 27.09968 89.52201 16459 ft 385 kts 173°
2026-05-08 22:40 27.07399 89.53132 17027 ft 393 kts 155°
2026-05-08 22:40 27.04989 89.54615 17590 ft 397 kts 153°
2026-05-08 22:41 27.02574 89.56150 18192 ft 401 kts 153°
2026-05-08 22:41 27.00139 89.57715 18698 ft 404 kts 153°
2026-05-08 22:41 26.97689 89.59292 19244 ft 406 kts 153°
2026-05-08 22:41 26.95228 89.60871 19783 ft 410 kts 153°
2026-05-08 22:42 26.92767 89.62438 20314 ft 414 kts 153°
2026-05-08 22:42 26.90250 89.64031 20866 ft 417 kts 154°
2026-05-08 22:42 26.87713 89.65634 21388 ft 420 kts 154°
2026-05-08 22:42 26.85123 89.67273 21897 ft 424 kts 154°
2026-05-08 22:43 26.82582 89.68881 22394 ft 427 kts 154°
2026-05-08 22:43 26.79978 89.70505 22907 ft 429 kts 156°
2026-05-08 22:43 26.77201 89.71686 23380 ft 426 kts 169°
2026-05-08 22:43 26.74290 89.72179 23819 ft 422 kts 181°
2026-05-08 22:44 26.71377 89.71986 24199 ft 419 kts 193°
2026-05-08 22:44 26.68585 89.71130 24596 ft 415 kts 205°
2026-05-08 22:44 26.66018 89.69676 25004 ft 412 kts 214°
2026-05-08 22:44 26.63580 89.68001 25420 ft 413 kts 214°
2026-05-08 22:45 26.61126 89.66318 25829 ft 414 kts 214°
2026-05-08 22:45 26.58665 89.64634 26235 ft 415 kts 215°
2026-05-08 22:45 26.56197 89.62950 26637 ft 416 kts 215°
2026-05-08 22:45 26.53724 89.61265 27035 ft 417 kts 215°
2026-05-08 22:46 26.51242 89.59578 27415 ft 418 kts 215°
2026-05-08 22:46 26.48750 89.57883 27783 ft 419 kts 215°
2026-05-08 22:46 26.46258 89.56184 28148 ft 421 kts 215°
2026-05-08 22:46 26.43755 89.54477 28495 ft 422 kts 215°
2026-05-08 22:47 26.41247 89.52767 28834 ft 423 kts 215°
2026-05-08 22:47 26.38733 89.51056 29171 ft 425 kts 215°
2026-05-08 22:47 26.36202 89.49337 29487 ft 426 kts 216°
2026-05-08 22:47 26.33683 89.47599 29796 ft 426 kts 218°
2026-05-08 22:48 26.31396 89.45579 30071 ft 424 kts 224°
2026-05-08 22:48 26.29134 89.43407 30410 ft 422 kts 224°
2026-05-08 22:48 26.26915 89.41285 30841 ft 419 kts 224°
2026-05-08 22:48 26.24741 89.39212 31287 ft 415 kts 224°
2026-05-08 22:49 26.22554 89.37133 31745 ft 411 kts 224°
2026-05-08 22:49 26.18252 89.33046 32681 ft 402 kts 225°
2026-05-08 22:49 26.16131 89.31030 33155 ft 398 kts 225°
2026-05-08 22:50 26.14037 89.29036 33634 ft 394 kts 225°
2026-05-08 22:50 26.11961 89.27060 34081 ft 390 kts 225°
2026-05-08 22:50 26.09902 89.25100 34424 ft 388 kts 225°
2026-05-08 22:50 26.07861 89.23146 34716 ft 387 kts 226°
2026-05-08 22:51 26.05848 89.21163 34989 ft 386 kts 226°
2026-05-08 22:51 26.03853 89.19170 35259 ft 386 kts 226°
2026-05-08 22:51 26.01869 89.17174 35505 ft 385 kts 226°
2026-05-08 22:51 25.99884 89.15169 35740 ft 385 kts 227°
2026-05-08 22:52 25.97906 89.13139 35856 ft 386 kts 227°
2026-05-08 22:52 25.95947 89.11108 35883 ft 385 kts 227°
2026-05-08 22:52 25.92041 89.07035 35879 ft 385 kts 227°
2026-05-08 22:53 25.88131 89.02972 35888 ft 385 kts 227°
2026-05-08 22:53 25.84233 88.98956 35883 ft 385 kts 227°
2026-05-08 22:54 25.80238 88.94984 35881 ft 389 kts 220°
2026-05-08 22:54 25.77815 88.93581 35892 ft 401 kts 206°
2026-05-08 22:54 25.75030 88.92957 35880 ft 418 kts 191°
2026-05-08 22:55 25.72067 88.93282 35873 ft 440 kts 175°
2026-05-08 22:55 25.69148 88.94531 35870 ft 454 kts 166°
2026-05-08 22:55 25.63382 88.97422 35861 ft 455 kts 166°
2026-05-08 22:56 25.57606 89.00328 35858 ft 456 kts 166°
2026-05-08 22:56 25.51820 89.03209 35865 ft 456 kts 166°
2026-05-08 22:57 25.46023 89.06074 35856 ft 456 kts 166°
2026-05-08 22:57 25.40221 89.08950 35857 ft 457 kts 166°
2026-05-08 22:58 25.34425 89.11829 35860 ft 457 kts 166°
2026-05-08 22:58 25.28622 89.14704 35862 ft 457 kts 166°
2026-05-08 22:59 25.22825 89.17566 35860 ft 457 kts 166°
2026-05-08 22:59 25.17016 89.20421 35867 ft 457 kts 166°
2026-05-08 23:00 25.11201 89.23286 35861 ft 458 kts 166°
2026-05-08 23:00 25.05384 89.26153 35865 ft 458 kts 166°
2026-05-08 23:01 24.99565 89.29017 35875 ft 457 kts 165°
2026-05-08 23:01 24.93761 89.31870 35885 ft 457 kts 165°
2026-05-08 23:02 24.87989 89.34705 35889 ft 456 kts 165°
2026-05-08 23:02 24.82190 89.37544 35888 ft 456 kts 165°
2026-05-08 23:03 24.77330 89.39930 35883 ft 456 kts 165°
2026-05-08 23:03 24.71538 89.42772 35882 ft 455 kts 165°
2026-05-08 23:04 24.64818 89.46058 35871 ft 455 kts 165°
2026-05-08 23:04 24.59971 89.48430 35865 ft 455 kts 165°
2026-05-08 23:05 24.54222 89.51239 35861 ft 455 kts 165°
2026-05-08 23:05 24.48429 89.54060 35856 ft 455 kts 165°
2026-05-08 23:06 24.42635 89.56880 35861 ft 456 kts 165°
2026-05-08 23:06 24.36855 89.59770 35849 ft 462 kts 160°
2026-05-08 23:07 24.34137 89.61734 35859 ft 474 kts 149°
2026-05-08 23:07 24.31713 89.64257 35861 ft 487 kts 139°
2026-05-08 23:07 24.27711 89.70375 35863 ft 496 kts 132°
2026-05-08 23:08 24.23780 89.76581 35862 ft 496 kts 132°
2026-05-08 23:08 24.19830 89.82784 35864 ft 496 kts 132°
2026-05-08 23:09 24.15885 89.88984 35864 ft 496 kts 132°
2026-05-08 23:09 24.11934 89.95184 35872 ft 496 kts 132°
2026-05-08 23:10 24.07980 90.01387 35879 ft 497 kts 132°
2026-05-08 23:10 24.04026 90.07594 36210 ft 496 kts 132°
2026-05-08 23:11 24.02050 90.10689 36487 ft 496 kts 132°
2026-05-08 23:11 24.00075 90.13775 36749 ft 495 kts 132°
2026-05-08 23:11 23.98097 90.16857 36881 ft 495 kts 132°
2026-05-08 23:11 23.96116 90.19945 36905 ft 495 kts 132°
2026-05-08 23:12 23.92168 90.26120 36913 ft 495 kts 132°
2026-05-08 23:12 23.88218 90.32283 36920 ft 495 kts 132°
2026-05-08 23:13 23.84258 90.38440 36918 ft 495 kts 133°
2026-05-08 23:13 23.79657 90.43808 36921 ft 477 kts 149°
2026-05-08 23:14 23.74519 90.48413 36914 ft 478 kts 148°
2026-05-08 23:14 23.69425 90.53001 36906 ft 478 kts 148°
2026-05-08 23:15 23.64287 90.57630 36900 ft 479 kts 148°
2026-05-08 23:15 23.59149 90.62256 36895 ft 479 kts 148°
2026-05-08 23:16 23.53971 90.66900 36897 ft 479 kts 148°
2026-05-08 23:16 23.48852 90.71495 36900 ft 479 kts 148°
2026-05-08 23:17 23.43707 90.76108 36898 ft 479 kts 148°
2026-05-08 23:17 23.38560 90.80715 36898 ft 479 kts 148°
2026-05-08 23:18 23.33413 90.85326 36898 ft 479 kts 148°
2026-05-08 23:18 23.28267 90.89939 36897 ft 479 kts 148°
2026-05-08 23:19 23.23129 90.94544 36897 ft 478 kts 148°
2026-05-08 23:19 23.17997 90.99138 36897 ft 478 kts 148°
2026-05-08 23:20 23.12884 91.03764 36890 ft 478 kts 147°
2026-05-08 23:20 23.07806 91.08432 36891 ft 478 kts 147°
2026-05-08 23:21 23.02708 91.13112 36890 ft 478 kts 147°
2026-05-08 23:21 22.97622 91.17751 36884 ft 478 kts 147°
2026-05-08 23:22 22.92526 91.22386 36885 ft 477 kts 147°
2026-05-08 23:22 22.87435 91.27020 36884 ft 477 kts 147°
2026-05-08 23:23 22.82378 91.31622 36885 ft 478 kts 147°
2026-05-08 23:23 22.77279 91.36248 36884 ft 477 kts 147°
2026-05-08 23:24 22.72181 91.40865 36883 ft 477 kts 147°
2026-05-08 23:24 22.67089 91.45484 36893 ft 477 kts 147°
2026-05-08 23:25 22.62003 91.50102 36891 ft 477 kts 147°
2026-05-08 23:25 22.56910 91.54710 36883 ft 477 kts 147°
2026-05-08 23:26 22.51814 91.59305 36886 ft 477 kts 147°
2026-05-08 23:26 22.46715 91.63902 36897 ft 477 kts 147°
2026-05-08 23:27 22.41656 91.68463 36894 ft 477 kts 147°
2026-05-08 23:27 22.36560 91.73055 36900 ft 477 kts 147°
2026-05-08 23:28 22.31462 91.77637 36905 ft 477 kts 147°
2026-05-08 23:28 22.26347 91.82231 36905 ft 477 kts 147°
2026-05-08 23:29 22.21239 91.86805 36904 ft 477 kts 147°
2026-05-08 23:29 22.16127 91.91374 36904 ft 477 kts 147°
2026-05-08 23:30 22.11018 91.95938 36897 ft 477 kts 147°
2026-05-08 23:30 22.05915 92.00496 36894 ft 476 kts 147°
2026-05-08 23:31 22.00801 92.05044 36891 ft 476 kts 147°
2026-05-08 23:31 21.95685 92.09595 36887 ft 476 kts 147°
2026-05-08 23:32 21.90601 92.14091 36890 ft 476 kts 147°
2026-05-08 23:32 21.85445 92.18559 36891 ft 475 kts 147°
2026-05-08 23:33 21.80271 92.23008 36894 ft 475 kts 147°
2026-05-08 23:33 21.75106 92.27461 36899 ft 475 kts 147°
2026-05-08 23:34 21.69948 92.31920 36897 ft 475 kts 147°
2026-05-08 23:34 21.64820 92.36438 36898 ft 477 kts 145°
2026-05-08 23:35 21.59925 92.41289 36898 ft 480 kts 142°
2026-05-08 23:35 21.55146 92.46261 36899 ft 480 kts 142°
2026-05-08 23:36 21.50262 92.51230 36903 ft 480 kts 143°
2026-05-08 23:36 21.45386 92.56057 36896 ft 480 kts 143°
2026-05-08 23:37 21.40462 92.60916 36905 ft 480 kts 143°
2026-05-08 23:37 21.35562 92.65788 36909 ft 481 kts 142°
2026-05-08 23:38 21.30667 92.70670 36910 ft 480 kts 142°
2026-05-08 23:38 21.25770 92.75545 36912 ft 480 kts 142°
2026-05-08 23:39 21.20874 92.80406 36906 ft 479 kts 143°
2026-05-08 23:39 21.15983 92.85251 36910 ft 479 kts 142°
2026-05-08 23:40 21.11086 92.90086 36914 ft 478 kts 142°
2026-05-08 23:40 21.06198 92.94916 36912 ft 478 kts 142°
2026-05-08 23:41 21.01322 92.99743 36908 ft 477 kts 142°
2026-05-08 23:41 20.96453 93.04555 36909 ft 476 kts 142°
2026-05-08 23:42 20.91586 93.09352 36908 ft 476 kts 142°
2026-05-08 23:42 20.86717 93.14153 36909 ft 475 kts 142°
2026-05-08 23:43 20.82680 93.18127 36904 ft 474 kts 142°
2026-05-08 23:43 20.77818 93.22904 36907 ft 474 kts 142°
2026-05-08 23:44 20.72962 93.27679 36911 ft 474 kts 142°
2026-05-08 23:44 20.68120 93.32444 36912 ft 473 kts 142°
2026-05-08 23:45 20.63307 93.37171 36912 ft 473 kts 142°
2026-05-08 23:45 20.58467 93.41910 36917 ft 472 kts 142°
2026-05-08 23:46 20.53628 93.46654 36920 ft 472 kts 142°
2026-05-08 23:46 20.48794 93.51390 36923 ft 471 kts 142°
2026-05-08 23:47 20.43958 93.56116 36925 ft 471 kts 142°
2026-05-08 23:47 20.39122 93.60833 36922 ft 471 kts 142°
2026-05-08 23:48 20.34292 93.65551 36917 ft 470 kts 142°
2026-05-08 23:48 20.29474 93.70253 36918 ft 470 kts 142°
2026-05-08 23:49 20.24643 93.74959 36917 ft 469 kts 142°
2026-05-08 23:49 20.19821 93.79660 36916 ft 469 kts 142°
2026-05-08 23:50 20.14997 93.84348 36915 ft 469 kts 142°
2026-05-08 23:50 20.10211 93.88998 36911 ft 469 kts 142°
2026-05-08 23:51 20.05400 93.93667 36913 ft 468 kts 142°
2026-05-08 23:51 20.00582 93.98331 36915 ft 468 kts 141°
2026-05-08 23:52 19.95776 94.02993 36917 ft 467 kts 141°
2026-05-08 23:52 19.90976 94.07646 36919 ft 467 kts 141°
2026-05-08 23:53 19.86174 94.12296 36925 ft 466 kts 141°
2026-05-08 23:53 19.81380 94.16935 36930 ft 466 kts 141°
2026-05-08 23:54 19.76588 94.21562 36931 ft 465 kts 141°
2026-05-08 23:55 19.69400 94.28486 36934 ft 465 kts 141°
2026-05-08 23:55 19.64608 94.33111 36935 ft 465 kts 141°
2026-05-08 23:56 19.59830 94.37723 36935 ft 464 kts 141°
2026-05-08 23:56 19.55051 94.42318 36941 ft 464 kts 141°
2026-05-08 23:57 19.50273 94.46908 36939 ft 463 kts 141°
2026-05-08 23:57 19.45503 94.51496 36940 ft 463 kts 141°
2026-05-08 23:58 19.40759 94.56056 36937 ft 462 kts 141°
2026-05-08 23:58 19.35990 94.60623 36942 ft 462 kts 141°
2026-05-08 23:59 19.31220 94.65189 36941 ft 462 kts 141°
2026-05-08 23:59 19.26451 94.69751 36936 ft 461 kts 141°
2026-05-09 00:00 19.21655 94.74275 36935 ft 461 kts 142°
2026-05-09 00:00 19.16848 94.78697 36931 ft 460 kts 142°
2026-05-09 00:01 19.12009 94.83141 36925 ft 460 kts 142°
2026-05-09 00:01 19.07191 94.87599 36933 ft 459 kts 142°
2026-05-09 00:02 19.02381 94.92048 36931 ft 459 kts 142°
2026-05-09 00:02 18.97573 94.96487 36926 ft 459 kts 142°
2026-05-09 00:03 18.92761 95.00911 36914 ft 458 kts 142°
2026-05-09 00:03 18.87956 95.05340 36918 ft 458 kts 142°
2026-05-09 00:04 18.83160 95.09755 36915 ft 457 kts 142°
2026-05-09 00:04 18.78366 95.14162 36913 ft 457 kts 141°
2026-05-09 00:05 18.73574 95.18573 36908 ft 457 kts 141°
2026-05-09 00:05 18.68783 95.22978 36909 ft 457 kts 141°
2026-05-09 00:06 18.63984 95.27377 36902 ft 457 kts 141°
2026-05-09 00:06 18.59211 95.31745 36901 ft 457 kts 141°
2026-05-09 00:07 18.54421 95.36144 36895 ft 457 kts 141°
2026-05-09 00:07 18.49624 95.40545 36893 ft 457 kts 141°
2026-05-09 00:08 18.44817 95.44932 36893 ft 457 kts 141°
2026-05-09 00:08 18.40075 95.49384 36890 ft 457 kts 140°
2026-05-09 00:09 18.35416 95.53885 36889 ft 457 kts 140°
2026-05-09 00:09 18.30722 95.58413 36887 ft 457 kts 140°
2026-05-09 00:10 18.26017 95.62908 36893 ft 457 kts 140°
2026-05-09 00:10 18.21303 95.67394 36893 ft 457 kts 140°
2026-05-09 00:11 18.16585 95.71876 36896 ft 457 kts 140°
2026-05-09 00:11 18.11878 95.76363 36898 ft 457 kts 140°
2026-05-09 00:12 18.07167 95.80838 36898 ft 457 kts 140°
2026-05-09 00:12 18.02472 95.85289 36892 ft 457 kts 140°
2026-05-09 00:13 17.97758 95.89770 36898 ft 457 kts 140°
2026-05-09 00:13 17.93043 95.94252 36894 ft 457 kts 140°
2026-05-09 00:14 17.88323 95.98727 36893 ft 457 kts 140°
2026-05-09 00:14 17.83592 96.03206 36894 ft 457 kts 140°
2026-05-09 00:15 17.78856 96.07678 36905 ft 457 kts 140°
2026-05-09 00:15 17.74129 96.12139 36904 ft 457 kts 140°
2026-05-09 00:16 17.69405 96.16612 36906 ft 457 kts 140°
2026-05-09 00:16 17.64670 96.21087 36904 ft 457 kts 140°
2026-05-09 00:17 17.59946 96.25544 36901 ft 457 kts 139°
2026-05-09 00:17 17.55213 96.30005 36904 ft 457 kts 139°
2026-05-09 00:18 17.50507 96.34437 36908 ft 457 kts 139°
2026-05-09 00:18 17.45767 96.38897 36911 ft 457 kts 139°
2026-05-09 00:19 17.41030 96.43347 36913 ft 456 kts 139°
2026-05-09 00:19 17.36309 96.47792 36913 ft 456 kts 139°
2026-05-09 00:20 17.31668 96.52322 36909 ft 456 kts 133°
2026-05-09 00:20 17.27757 96.57561 36907 ft 457 kts 129°
2026-05-09 00:21 17.23899 96.62784 36906 ft 457 kts 129°
2026-05-09 00:21 17.19997 96.68037 36897 ft 457 kts 129°
2026-05-09 00:22 17.16092 96.73299 36888 ft 457 kts 129°
2026-05-09 00:22 17.12191 96.78568 36887 ft 458 kts 129°
2026-05-09 00:23 17.08302 96.83835 36880 ft 458 kts 129°
2026-05-09 00:23 17.05048 96.88224 36879 ft 458 kts 129°
2026-05-09 00:24 17.00496 96.94349 36876 ft 459 kts 129°
2026-05-09 00:24 16.96574 96.99638 36879 ft 460 kts 129°
2026-05-09 00:25 16.93317 97.04032 36880 ft 460 kts 129°
2026-05-09 00:25 16.89388 97.09314 36871 ft 460 kts 129°
2026-05-09 00:26 16.85454 97.14587 36878 ft 461 kts 129°
2026-05-09 00:26 16.81505 97.19872 36876 ft 461 kts 129°
2026-05-09 00:27 16.77559 97.25169 36879 ft 461 kts 129°
2026-05-09 00:27 16.73645 97.30424 36880 ft 461 kts 129°
2026-05-09 00:28 16.69691 97.35710 36876 ft 462 kts 129°
2026-05-09 00:28 16.65736 97.41008 36886 ft 462 kts 129°
2026-05-09 00:29 16.61787 97.46295 36892 ft 462 kts 129°
2026-05-09 00:29 16.57837 97.51579 36893 ft 462 kts 129°
2026-05-09 00:30 16.53884 97.56857 36893 ft 462 kts 129°
2026-05-09 00:30 16.49950 97.62117 36899 ft 462 kts 129°
2026-05-09 00:31 16.45997 97.67397 36902 ft 462 kts 129°
2026-05-09 00:31 16.42030 97.72677 36902 ft 462 kts 129°
2026-05-09 00:32 16.38062 97.77953 36906 ft 462 kts 129°
2026-05-09 00:32 16.33491 97.82621 36907 ft 460 kts 140°
2026-05-09 00:33 16.28645 97.86974 36909 ft 460 kts 140°
2026-05-09 00:33 16.23833 97.91309 36905 ft 460 kts 140°
2026-05-09 00:34 16.18988 97.95676 36911 ft 461 kts 140°
2026-05-09 00:34 16.14133 98.00036 36917 ft 461 kts 140°
2026-05-09 00:35 16.09275 98.04396 36923 ft 461 kts 140°
2026-05-09 00:35 16.04412 98.08763 36923 ft 461 kts 140°
2026-05-09 00:36 15.99555 98.13129 36927 ft 461 kts 140°
2026-05-09 00:36 15.94696 98.17483 36931 ft 461 kts 140°
2026-05-09 00:37 15.89830 98.21835 36933 ft 461 kts 140°
2026-05-09 00:37 15.84968 98.26187 36936 ft 461 kts 140°
2026-05-09 00:38 15.80114 98.30536 36943 ft 460 kts 140°
2026-05-09 00:38 15.75289 98.34857 36943 ft 460 kts 140°
2026-05-09 00:39 15.70438 98.39186 36948 ft 460 kts 140°
2026-05-09 00:39 15.65587 98.43513 36953 ft 460 kts 140°
2026-05-09 00:40 15.60735 98.47841 36961 ft 460 kts 140°
2026-05-09 00:40 15.55886 98.52162 36966 ft 460 kts 140°
2026-05-09 00:41 15.48615 98.58680 36978 ft 460 kts 136°
2026-05-09 00:41 15.44470 98.63726 36983 ft 460 kts 129°
2026-05-09 00:42 15.40461 98.68865 36991 ft 460 kts 129°
2026-05-09 00:42 15.36431 98.74011 36995 ft 460 kts 129°
2026-05-09 00:43 15.32386 98.79160 37003 ft 460 kts 129°
2026-05-09 00:43 15.28351 98.84309 37011 ft 460 kts 129°
2026-05-09 00:44 15.24313 98.89457 37013 ft 460 kts 129°
2026-05-09 00:44 15.20273 98.94602 37016 ft 460 kts 129°
2026-05-09 00:45 15.16242 98.99737 37009 ft 459 kts 129°
2026-05-09 00:45 15.12213 99.04871 37004 ft 459 kts 129°
2026-05-09 00:46 15.08206 99.09964 37000 ft 459 kts 129°
2026-05-09 00:46 15.04162 99.15088 36996 ft 460 kts 129°
2026-05-09 00:47 15.00116 99.20223 36992 ft 460 kts 129°
2026-05-09 00:47 14.96072 99.25362 36991 ft 461 kts 129°
2026-05-09 00:48 14.92021 99.30500 36988 ft 461 kts 129°
2026-05-09 00:48 14.87964 99.35642 36987 ft 461 kts 129°
2026-05-09 00:49 14.83908 99.40782 36990 ft 461 kts 129°
2026-05-09 00:49 14.79839 99.45929 36991 ft 461 kts 129°
2026-05-09 00:50 14.75803 99.51034 36997 ft 461 kts 129°
2026-05-09 00:50 14.71746 99.56162 36978 ft 461 kts 129°
2026-05-09 00:51 14.69715 99.58734 36491 ft 462 kts 129°
2026-05-09 00:51 14.67666 99.61326 35498 ft 469 kts 129°
2026-05-09 00:51 14.65588 99.63951 34561 ft 474 kts 129°
2026-05-09 00:51 14.63489 99.66594 33553 ft 479 kts 129°
2026-05-09 00:52 14.61370 99.69260 32502 ft 482 kts 129°
2026-05-09 00:52 14.59242 99.71936 31577 ft 482 kts 129°
2026-05-09 00:52 14.57117 99.74614 30588 ft 483 kts 129°
2026-05-09 00:52 14.54987 99.77299 29480 ft 485 kts 129°
2026-05-09 00:53 14.52849 99.79996 28296 ft 487 kts 129°
2026-05-09 00:53 14.50709 99.82697 27281 ft 484 kts 130°
2026-05-09 00:53 14.48581 99.85383 26243 ft 482 kts 130°
2026-05-09 00:53 14.46501 99.88026 25339 ft 479 kts 128°
2026-05-09 00:54 14.44714 99.90915 24405 ft 477 kts 118°
2026-05-09 00:54 14.43467 99.94065 23617 ft 472 kts 108°
2026-05-09 00:54 14.42636 99.97319 22757 ft 467 kts 105°
2026-05-09 00:54 14.41839 100.00539 22112 ft 458 kts 105°
2026-05-09 00:55 14.41062 100.03650 21961 ft 438 kts 105°
2026-05-09 00:55 14.40316 100.06638 21835 ft 421 kts 105°
2026-05-09 00:55 14.39596 100.09518 21631 ft 409 kts 105°
2026-05-09 00:55 14.38890 100.12335 21321 ft 401 kts 105°
2026-05-09 00:56 14.38194 100.15111 21170 ft 400 kts 105°
2026-05-09 00:56 14.37499 100.17886 20930 ft 398 kts 105°
2026-05-09 00:56 14.36809 100.20643 20692 ft 396 kts 105°
2026-05-09 00:56 14.36123 100.23387 20457 ft 395 kts 105°
2026-05-09 00:57 14.35440 100.26122 20216 ft 393 kts 106°
2026-05-09 00:57 14.34757 100.28843 19979 ft 392 kts 106°
2026-05-09 00:57 14.34073 100.31560 19746 ft 390 kts 106°
2026-05-09 00:57 14.33394 100.34261 19511 ft 389 kts 106°
2026-05-09 00:58 14.32717 100.36956 19273 ft 387 kts 106°
2026-05-09 00:58 14.32046 100.39648 19042 ft 386 kts 106°
2026-05-09 00:58 14.31376 100.42328 18807 ft 384 kts 106°
2026-05-09 00:58 14.30706 100.44992 18571 ft 383 kts 106°
2026-05-09 00:59 14.30037 100.47643 18349 ft 382 kts 106°
2026-05-09 00:59 14.29371 100.50290 18114 ft 381 kts 106°
2026-05-09 00:59 14.28708 100.52933 17869 ft 379 kts 106°
2026-05-09 00:59 14.28051 100.55553 17637 ft 377 kts 106°
2026-05-09 01:00 14.27394 100.58166 17395 ft 375 kts 106°
2026-05-09 01:00 14.26740 100.60766 17168 ft 374 kts 106°
2026-05-09 01:00 14.26097 100.63323 16934 ft 372 kts 106°
2026-05-09 01:00 14.25447 100.65903 16704 ft 370 kts 105°
2026-05-09 01:01 14.24800 100.68469 16476 ft 368 kts 106°
2026-05-09 01:01 14.23860 100.70901 16231 ft 364 kts 121°
2026-05-09 01:01 14.22319 100.72948 16032 ft 361 kts 137°
2026-05-09 01:01 14.20320 100.74487 15616 ft 361 kts 151°
2026-05-09 01:02 14.17955 100.75379 15081 ft 360 kts 169°
2026-05-09 01:02 14.15522 100.75670 14966 ft 345 kts 174°
2026-05-09 01:02 14.14090 100.75819 14899 ft 337 kts 174°
2026-05-09 01:03 14.11787 100.75880 14772 ft 326 kts 185°
2026-05-09 01:03 14.09588 100.75445 14527 ft 320 kts 194°
2026-05-09 01:03 14.07438 100.74886 14186 ft 318 kts 194°
2026-05-09 01:03 14.05306 100.74321 13852 ft 316 kts 194°
2026-05-09 01:04 14.03174 100.73752 13466 ft 315 kts 194°
2026-05-09 01:04 14.01059 100.73188 13080 ft 313 kts 193°
2026-05-09 01:04 13.98953 100.72625 12712 ft 312 kts 193°
2026-05-09 01:04 13.96858 100.72066 12295 ft 311 kts 193°
2026-05-09 01:05 13.94774 100.71513 11968 ft 307 kts 193°
2026-05-09 01:05 13.93405 100.71150 11764 ft 305 kts 193°
2026-05-09 01:05 13.89331 100.70076 11221 ft 300 kts 193°
2026-05-09 01:06 13.86662 100.69370 10831 ft 298 kts 193°
2026-05-09 01:06 13.84659 100.68838 10540 ft 297 kts 192°
2026-05-09 01:06 13.83302 100.68477 10343 ft 296 kts 192°
2026-05-09 01:06 13.81313 100.67950 10058 ft 295 kts 192°
2026-05-09 01:07 13.79322 100.67424 9761 ft 293 kts 192°
2026-05-09 01:07 13.77381 100.66913 9463 ft 292 kts 192°
2026-05-09 01:07 13.75426 100.66397 9213 ft 286 kts 192°
2026-05-09 01:07 13.73532 100.65894 9090 ft 274 kts 192°
2026-05-09 01:08 13.71716 100.65412 8964 ft 263 kts 192°
2026-05-09 01:08 13.69966 100.64947 8733 ft 257 kts 192°
2026-05-09 01:08 13.68251 100.64493 8589 ft 254 kts 192°
2026-05-09 01:08 13.66543 100.64042 8385 ft 253 kts 192°
2026-05-09 01:09 13.64844 100.63593 8162 ft 252 kts 191°
2026-05-09 01:09 13.63152 100.63150 7936 ft 251 kts 191°
2026-05-09 01:09 13.61466 100.62709 7712 ft 249 kts 191°
2026-05-09 01:09 13.59787 100.62268 7486 ft 249 kts 191°
2026-05-09 01:10 13.58107 100.61824 7265 ft 248 kts 191°
2026-05-09 01:10 13.56440 100.61383 7040 ft 247 kts 191°
2026-05-09 01:10 13.54780 100.60946 6814 ft 246 kts 191°
2026-05-09 01:10 13.53129 100.60510 6594 ft 245 kts 191°
2026-05-09 01:11 13.51484 100.60075 6378 ft 244 kts 191°
2026-05-09 01:11 13.49847 100.59642 6129 ft 243 kts 191°
2026-05-09 01:11 13.48231 100.59216 5875 ft 242 kts 191°
2026-05-09 01:11 13.46577 100.58779 5646 ft 242 kts 191°
2026-05-09 01:12 13.44952 100.58588 5416 ft 236 kts 168°
2026-05-09 01:12 13.43482 100.59234 5176 ft 230 kts 138°
2026-05-09 01:12 13.42561 100.60542 4941 ft 228 kts 109°
2026-05-09 01:12 13.42145 100.62119 4698 ft 230 kts 104°
2026-05-09 01:13 13.41751 100.63712 4447 ft 230 kts 104°
2026-05-09 01:13 13.41668 100.65339 4206 ft 231 kts 76°
2026-05-09 01:13 13.42499 100.66725 3974 ft 232 kts 41°
2026-05-09 01:13 13.43962 100.67355 3755 ft 230 kts
2026-05-09 01:14 13.45538 100.67555 3524 ft 225 kts 12°
2026-05-09 01:14 13.47033 100.67937 3323 ft 219 kts 17°
2026-05-09 01:14 13.48449 100.68454 3120 ft 213 kts 20°
2026-05-09 01:14 13.49834 100.68902 3017 ft 204 kts 17°
2026-05-09 01:15 13.51167 100.69269 2990 ft 194 kts 16°
2026-05-09 01:15 13.52456 100.69611 2860 ft 187 kts 15°
2026-05-09 01:15 13.53700 100.69938 2638 ft 184 kts 15°
2026-05-09 01:15 13.54923 100.70259 2401 ft 179 kts 15°
2026-05-09 01:16 13.56113 100.70572 2174 ft 173 kts 16°
2026-05-09 01:16 13.57259 100.70873 1960 ft 168 kts 15°
2026-05-09 01:16 13.58381 100.71167 1748 ft 165 kts 15°
2026-05-09 01:17 13.60522 100.71730 1329 ft 148 kts 15°
2026-05-09 01:17 13.61463 100.71977 1148 ft 133 kts 15°
2026-05-09 01:17 13.62333 100.72206 981 ft 127 kts 15°
2026-05-09 01:17 13.63135 100.72417 828 ft 123 kts 14°
2026-05-09 01:18 13.63967 100.72636 685 ft 123 kts 14°
2026-05-09 01:18 13.64797 100.72853 493 ft 123 kts 13°
2026-05-09 01:18 13.65618 100.73080 336 ft 121 kts 13°
2026-05-09 01:18 13.66435 100.73291 203 ft 121 kts 11°
2026-05-09 01:19 13.67246 100.73503 62 ft 121 kts 12°
2026-05-09 01:19 13.68027 100.73704 14 ft 103 kts 14°
2026-05-09 01:19 13.68635 100.73863 16 ft 75 kts 15°
2026-05-09 01:19 13.69029 100.73977 14 ft 42 kts 25°
2026-05-09 01:20 13.69188 100.74107 13 ft 18 kts 44°
2026-05-09 01:20 13.69199 100.74213 13 ft 16 kts 103°
2026-05-09 01:20 13.69134 100.74285 13 ft 16 kts 186°
2026-05-09 01:20 13.69023 100.74257 14 ft 17 kts 194°
2026-05-09 01:21 13.68909 100.74227 14 ft 17 kts 195°
2026-05-09 01:21 13.68816 100.74236 14 ft 14 kts 129°
2026-05-09 01:21 13.68787 100.74335 13 ft 15 kts 104°
2026-05-09 01:21 13.68759 100.74446 15 ft 17 kts 104°
2026-05-09 01:22 13.68729 100.74566 15 ft 18 kts 104°
2026-05-09 01:22 13.68697 100.74694 13 ft 19 kts 104°
2026-05-09 01:22 13.68730 100.74784 13 ft 15 kts 22°
2026-05-09 01:22 13.68839 100.74813 13 ft 17 kts 14°
2026-05-09 01:23 13.68958 100.74844 13 ft 18 kts 14°
2026-05-09 01:23 13.69027 100.74894 13 ft 12 kts 84°
2026-05-09 01:23 13.69016 100.74955 13 ft 6 kts 88°
2026-05-09 01:23 13.69053 100.74973 13 ft 4 kts 13°
2026-05-09 01:24 13.69078 100.74980 13 ft 3 kts 14°
2026-05-09 01:24 13.69086 100.74982 13 ft 0 kts 14°